軌道要素
Epoch 2020 Apr. 21.0 TT = JDT 2458960.5
T 2020 May 4.95059 TT Rudenko
q 1.6151415 (2000.0) P Q
z +0.0002849 Peri. 92.99154 -0.50993856 -0.40637367
Node 64.37795 -0.16273911 -0.81988669
e 0.9995398 Incl. 57.23056 +0.84467665 -0.40329425
From 7034 observations 2017 Sept. 15-2021 Feb. 16, mean residual 0".5.
Nongravitational parameters A1 = +4.28, A2 = -1.5604.
|